sat.trackr.live / text

‹ back to catalog

BRO-5

NORAD 51061 · 2022-002CF

PAYLOAD ACTIVE UNKNOWN

§ Identity

Operator
Country
FR
Launch date
2022-01-13
Launch site
AFETR
Launch vehicle
Mass (kg)
RCS (m²)

External: N2YO · Heavens-Above · Gunter

§ Orbital elements

Epoch: 2026-09-20T21:43:56.940096Z

Period
92.86 min
Inclination
97.2909°
Eccentricity
0.0005255
Mean motion
15.50784259 rev/d
Perigee alt
410.9 km
Apogee alt
418.0 km
Semi-major
6,792.6 km
B*
3.3643e-4
RAAN
338.6390°
Arg perigee
346.0860°
Mean anomaly
14.0247°
Rev number
26,107

§ Raw data

BRO-51 51061U 22002CF  26263.90552014  .00019317  00000+0  33643-3 0  99962 51061  97.2909 338.6390 0005255 346.0860  14.0247 15.50784259261077

JSON: /api/v1/satellites/51061 · /tle

For live sub-satellite position, see the globe view (requires WebGL).

§ Visibility from observer

Set your observer location to see the next 7 days of passes ≥ 10°. The values pass through the URL so the page stays shareable.

No JS? Fill the form by hand. The geolocation button needs JavaScript.

§ Radio — SatNOGS DB

ModeDescriptionDownlinkUplink
FSK AX.100 Mode 5 Mode U - FSK4k8 AX.100 401.735 MHz
FSK S-Band transmitter 2.261 GHz
FSK AX.100 Mode 5 Telemetry 401.176 MHz
FM Telemetry 401.490 MHz

4 transmitters · refreshed weekly from db.satnogs.org